Tracking 27079 objects as of 23-Mar-2023
HD Live streaming from Space Station
objects crossing your sky now

STARLINK-1523

Track STARLINK-1523 now!
10-day predictions
STARLINK-1523 is classified as:


NORAD ID: 46028
Int'l Code: 2020-055B
Perigee: 553.9 km
Apogee: 554.7 km
Inclination: 53.1 °
Period: 95.6 minutes
Semi major axis: 6925 km
RCS: Unknown
Launch date: August 7, 2020
Source: United States (US)
Launch site: AIR FORCE EASTERN TEST RANGE (AFETR)
Your satellite tracking list
Your tracking list is empty




NASA's NSSDC Master Catalog

Two Line Element Set (TLE):
1 46028U 20055B   23081.92894490  .00023376  00000-0  15820-2 0  9990
2 46028  53.0540 307.3218 0000605  95.0523 265.0535 15.06423906145189
Source of the keplerian elements: AFSPC